OBJECT AA, 47437

Orbit data source: Space-Track

You're viewing an Uncataloged Satellite

Recently launched and/or uncataloged satellites may have evolving metadata. Metadata may include but not limited to: Owner, Maufacturer, Bus, Motor, and Mission.

OBJECT AA, 47437 is a satellite in SSO that was launched on Sun, 24 Jan 2021 UTC launched from the Air Force Eastern Test Range (AFETR). Unknown objects in Earth's orbit typically refer to objects detected orbiting the Earth but have not yet been identified or cataloged. These objects could be anything from previously untracked satellites, spent rocket stages, debris from satellite collisions, or even natural meteoroids temporarily captured by Earth's gravity.

Loading next visibility...
Identifier
47437, 2021-006AA
Orbit
SSO
Last TLE update
5 hours ago
Origin
Manufacturer
SpaceX/Seattle
Mission
Spacecraft
Bus & Motor
Unknown
Mass
~100 kg wet, ~100 kg dry
Launch date (UTC)
2021-01-24 (4 years ago)
Launch vehicle
Unknown
Launch site
Air Force Eastern Test Range (AFETR)
Object type
Unknown
Shape & HBR
Cyl, Unknown HBR
Radar Cross Section
0.110 m², Medium (>0.1 m² and < 1m²)

Expand to show TLE details & history

TLE from 5 hours ago
0 OBJECT AA
1 47437U 21006AA  25186.52173330  .00003968  00000-0  15362-3 0  9996
2 47437  97.2742 231.3808 0009495   7.4580 352.6799 15.26709563246359
Epoch: 2025-07-05T12:31Z
TLE epoch observation values (Epoch: 2025-07-05T12:31:17.757Z)
Latitude
0.00004°
Longitude
119.79823°
Altitude
482.295 km
Speed
7.628 km/s
True Right ascension
15h 25m 31s
True Declination
0° 00' 00"
Sunlit
Object was in full shadow at epoch
Visualization orbit readout
Latitude
38.20998°
Longitude
-54.25008°
Altitude
495.664 km
Speed
7.618 km/s
Apparent Right ascension
23h 30m 45s
Apparent Declination
3° 25' 51"
Sunlit
Object is in daylight
Visualization observer readout
Local Sidereal Time
05:46:55
Azimuth
275.223° WNW
Elevation
-0.891°
Doppler factor
1
Orbital elements
Apogee altitude
489.122 km
Perigee altitude
476.094 km
Semi-major axis
6,860.745 km
Eccentricity
0.00095
Inclination
97.2742°
RAAN
231.3808°
Arg. of periapsis
7.458°
True anomaly
Unknown
Mean anomaly
352.6799°
Eccentric anomaly
Unknown
Mean motion
3.81932 °/min
Orbital period
94.26 mins
BSTAR
0.00015362
Loading maneuver chart data...
Loading SW <> Apogee altitude chart data...

OBJECT AA Visibility forecast

Observer location: undefined°, undefined°

Span
Click to sort rows by Start time (UTC) header in descending order
Start Az.
Max El. time (UTC)
Max El. Az.
Max El.
End time (UTC)
End Az.
6 mins2025-07-06 02:48:28.952Z150.98° SSE2025-07-06 02:51:28.952Z70.25° E39.043°2025-07-06 02:54:28.952Z359.117° N
5 mins2025-07-06 15:50:28.952Z15.967° NNE2025-07-06 15:52:28.952Z138.339° SSE44.58°2025-07-06 15:55:28.952Z189.616° SSW
|